Wind_Speed
73 73 72 64 64 65 64 61 57 55 51 46 47 47 39 36 38 37 35 37 39 40 44 45 45 47 48 47 46 47 49 50 49 43 43 39 37 40 42 43 44 47 47 46
73 76 65 64 65 62 64 60 58 54 48 45 47 48 44 40 38 38 36 37 39 41 43 46 47 47 46 47 45 44 43 44 43 40 39 40 41 42 42 45 44 45 45 47
67 64 68 71 69 63 61 61 58 52 47 44 44 44 42 37 40 39 37 37 39 42 43 44 45 46 45 46 46 47 46 44 44 43 42 43 44 44 45 46 45 45 46 46
60 62 71 71 67 61 60 58 55 53 49 43 42 42 41 35 36 38 39 37 35 38 40 42 44 45 46 48 49 49 50 49 47 47 48 49 50 50 52 51 51 49 50 47
58 59 69 72 66 61 59 55 53 51 45 40 42 44 43 39 39 39 37 37 36 36 37 39 42 43 44 45 48 49 51 55 54 53 56 57 58 52 54 53 53 51 49 48
44 49 57 59 54 53 56 53 49 46 38 41 44 45 43 41 40 37 37 36 35 35 34 36 39 40 41 43 45 45 47 50 49 46 48 51 52 51 52 52 49 45 47 46
40 46 51 54 51 49 54 53 50 46 45 48 46 48 45 43 40 37 35 34 33 33 32 33 36 39 39 36 39 39 40 44 46 45 48 48 47 47 47 44 40 41 38 38
20 48 48 50 54 52 54 53 58 59 58 56 51 52 46 43 39 36 34 31 30 30 31 31 33 33 31 33 33 32 33 37 40 40 39 36 34 36 38 34 35 32 31 32
23 27 47 45 45 50 51 51 50 51 53 54 52 50 46 41 39 37 33 31 30 30 30 29 29 29 29 32 32 31 31 32 35 34 35 36 34 30 27 25 27 30 31 33
13 23 36 35 41 44 43 44 50 50 51 52 50 49 45 41 37 33 29 31 32 32 29 28 28 28 31 32 30 27 26 27 29 30 26 24 24 23 23 26 28 29 31 33
16 23 34 35 39 41 47 46 43 49 50 51 50 49 40 37 35 31 32 34 34 31 29 30 31 31 31 31 30 30 28 28 26 25 23 22 24 24 24 24 27 30 33 35
18 22 36 34 28 33 35 41 44 49 48 48 44 43 41 38 34 31 31 34 32 30 28 28 27 29 28 29 31 30 27 25 23 22 22 22 22 23 25 27 27 29 30 35
17 19 32 30 30 34 40 42 38 43 42 43 42 44 43 40 37 35 32 31 29 27 26 24 25 27 28 31 33 30 28 25 25 23 22 22 23 26 26 26 27 31 33 33
17 23 33 32 34 35 32 40 40 43 41 38 38 36 40 39 35 38 31 29 25 24 24 22 25 26 27 29 26 23 21 20 21 24 22 23 25 25 27 29 32 34 35 35
17 20 19 36 35 34 32 31 39 47 37 32 27 24 25 33 33 30 31 28 24 25 23 26 26 29 30 28 26 24 21 23 22 21 24 27 29 28 30 32 33 34 34 35
18 20 16 22 31 32 28 30 34 46 39 31 25 28 25 32 32 30 25 27 22 26 30 27 22 21 20 23 26 21 20 18 18 24 26 26 26 28 30 29 27 29 31 33
19 22 17 22 24 26 31 32 38 45 41 31 30 24 25 28 30 25 21 25 29 25 31 25 18 19 23 24 22 18 15 17 21 20 23 26 26 27 26 25 28 30 34 36
17 19 20 26 24 24 28 28 31 40 42 34 29 27 27 26 32 22 24 29 27 24 16 15 22 23 24 21 15 14 17 23 21 23 25 25 26 26 25 28 31 34 36 35
13 20 20 18 22 22 25 29 31 35 36 32 26 23 26 27 25 27 28 19 21 21 20 17 24 23 21 19 17 19 21 22 23 26 26 28 28 28 29 31 33 36 36 34
16 14 15 19 18 24 27 28 26 27 26 25 24 24 22 20 22 23 26 23 22 25 21 17 20 23 23 22 24 24 22 23 25 26 29 29 30 31 33 34 35 36 35 33
13 12 17 18 20 19 23 29 29 32 27 24 22 24 21 22 23 27 26 25 25 25 23 20 14 22 26 18 21 21 24 25 25 28 30 31 32 33 33 34 34 34 32 31
19 17 17 20 18 20 19 24 23 24 27 25 20 19 21 24 19 17 22 21 22 24 23 20 17 23 27 24 21 21 20 24 27 29 30 31 30 31 31 31 31 31 29 26
18 18 15 18 19 9 12 16 21 21 24 22 24 22 22 23 19 16 15 18 19 22 21 19 18 19 19 18 15 16 21 22 24 27 29 31 32 32 32 32 30 29 25 22
18 16 14 15 16 15 15 15 16 17 21 19 19 21 27 22 22 17 20 16 15 16 17 18 18 17 15 15 15 18 20 24 25 28 30 32 32 31 35 33 30 24 21 19
16 17 17 14 14 17 17 12 11 16 13 18 20 21 23 22 16 16 15 14 15 15 15 15 16 16 16 16 18 20 23 26 26 29 31 32 31 32 34 31 23 20 18 16
19 15 15 15 17 15 22 19 18 13 13 26 33 32 22 19 15 15 14 16 16 16 17 17 17 16 17 18 21 23 25 26 27 30 33 33 33 33 33 26 22 18 15 14
Wind_Direction
238 236 236 235 235 236 239 240 243 243 244 243 246 244 239 242 240 238 234 232 235 236 239 243 245 246 250 251 250 254 258 261 263 265 263 260 257 255 259 264 268 268 270 269
232 236 235 232 232 234 236 236 239 241 242 241 242 245 246 244 242 240 232 230 230 232 236 241 244 245 247 253 256 257 258 262 265 263 261 264 263 265 268 271 274 278 278 275
230 230 230 229 227 229 230 231 234 237 236 237 238 240 241 237 237 240 234 230 231 230 232 238 247 250 248 249 255 259 259 258 261 265 266 267 271 273 275 277 278 282 281 281
230 219 224 227 226 226 225 228 229 231 231 231 233 238 240 235 236 238 235 232 234 237 235 236 239 248 251 248 249 255 261 264 266 268 271 275 277 279 280 281 281 278 279 277
230 219 221 223 223 221 221 219 223 226 226 222 226 235 239 236 236 236 237 235 231 233 236 238 240 245 250 255 258 256 258 262 262 266 271 274 279 276 279 282 286 285 284 282
225 221 223 220 225 222 219 212 216 220 216 216 225 231 233 233 234 234 236 232 227 227 229 234 239 244 250 253 255 257 259 262 264 266 270 272 273 275 277 277 282 283 281 281
218 217 213 216 213 208 210 209 209 209 209 221 222 229 229 228 227 228 229 229 226 224 227 233 239 245 252 259 261 258 258 263 265 262 265 269 271 274 279 282 281 283 285 285
218 212 204 211 209 211 209 208 208 211 215 219 215 225 219 221 222 221 220 219 219 222 226 232 237 242 249 256 260 259 258 261 264 267 267 272 272 273 275 277 276 277 282 285
235 212 204 207 206 208 207 206 207 207 211 214 214 218 213 213 216 213 209 210 213 219 223 228 236 243 246 247 249 252 254 258 262 265 268 270 269 266 263 272 280 282 290 292
200 197 195 198 198 205 208 206 199 201 207 209 210 214 216 212 212 212 205 207 212 216 214 222 229 233 236 239 242 240 243 247 250 252 256 258 264 272 279 284 287 288 289 289
185 171 180 190 197 200 196 196 200 206 206 209 208 208 207 205 204 200 203 209 210 214 213 217 223 226 232 240 242 243 244 248 240 244 255 263 271 278 280 279 281 282 286 289
141 167 178 180 186 192 200 194 200 200 205 209 209 210 208 201 198 201 205 212 211 213 219 221 227 228 233 238 241 244 243 238 240 249 260 273 278 276 274 278 286 293 296 291
195 194 173 177 180 192 191 193 192 194 204 211 208 201 209 202 194 200 203 211 213 216 221 225 225 228 233 237 240 242 238 245 246 258 271 272 276 284 286 292 291 297 297 295
166 178 179 179 180 183 181 190 191 187 197 205 212 207 206 210 204 205 207 212 210 215 211 218 220 223 230 236 239 234 238 245 244 259 263 270 278 287 293 291 291 290 292 294
164 172 172 188 190 190 187 183 187 187 185 190 197 198 207 207 206 211 211 207 208 210 218 216 226 232 241 240 231 231 237 245 253 258 269 278 288 289 289 293 293 295 296 296
159 161 169 179 197 177 184 194 185 185 176 182 172 179 177 195 197 199 192 193 201 218 214 212 230 231 245 223 229 229 233 240 256 267 274 276 277 284 287 291 298 300 303 300
162 171 159 154 184 182 178 192 189 185 176 165 165 180 177 179 188 183 179 197 213 203 202 220 228 234 232 223 228 235 233 257 275 276 280 283 285 287 293 303 299 301 302 300
158 154 147 146 165 182 178 183 189 190 179 172 171 173 190 182 191 182 193 192 192 188 195 230 229 230 232 233 224 233 249 261 275 283 285 290 292 294 299 296 299 302 302 306
153 145 153 167 161 171 178 175 171 183 186 190 194 206 203 207 194 197 204 201 208 212 212 227 226 224 236 222 241 249 257 269 281 288 293 295 294 296 293 293 295 299 303 309
159 147 154 159 157 169 173 177 179 182 188 184 174 182 194 189 199 198 210 224 221 220 219 224 237 230 225 239 250 257 264 281 286 289 289 292 294 293 291 292 294 297 302 307
168 158 158 167 171 169 172 180 182 189 182 182 177 169 174 179 188 207 217 223 222 222 226 221 242 224 221 264 250 258 278 284 287 288 291 290 288 288 290 291 294 296 301 304
175 170 162 161 169 190 182 180 181 179 190 194 201 185 193 194 202 212 223 223 229 222 224 223 229 230 244 256 262 273 283 292 294 292 290 289 290 292 293 292 292 293 297 300
163 172 179 184 179 157 165 175 194 189 185 197 199 203 210 210 217 205 200 207 218 222 224 224 240 242 248 256 270 284 295 301 300 296 294 295 297 297 297 296 293 292 292 291
159 157 156 164 178 177 167 169 172 176 179 188 189 187 191 218 217 220 204 213 214 217 225 230 236 238 249 257 270 287 298 299 296 297 301 299 300 300 301 298 292 285 284 280
148 160 164 158 157 177 180 165 149 169 164 182 192 196 196 193 197 205 213 220 228 234 237 240 242 244 250 263 280 291 293 293 297 303 305 301 302 301 299 295 283 276 273 266
146 155 177 174 159 148 148 158 179 172 191 176 184 174 195 200 211 223 228 233 233 233 232 233 240 251 263 273 285 290 293 295 301 304 305 302 300 302 301 287 275 267 258 260
Height
5633 5639 5655 5676 5684 5691 5695 5704 5711 5719 5725 5733 5736 5740 5751 5756 5762 5767 5771 5777 5782 5786 5789 5792 5796 5801 5805 5808 5812 5817 5820 5823 5827 5831 5832 5834 5834 5835 5835 5835 5836 5834 5834 5834
5610 5624 5651 5656 5660 5671 5680 5689 5698 5705 5713 5720 5725 5730 5740 5748 5753 5759 5763 5769 5774 5777 5781 5783 5787 5791 5796 5798 5802 5807 5812 5816 5819 5822 5823 5824 5825 5826 5826 5826 5827 5826 5824 5822
5592 5622 5623 5632 5642 5655 5666 5674 5685 5693 5701 5707 5714 5720 5728 5738 5744 5749 5755 5761 5766 5770 5773 5777 5781 5785 5790 5794 5797 5799 5803 5808 5810 5812 5814 5816 5817 5817 5817 5816 5817 5815 5814 5813
5570 5595 5601 5614 5628 5642 5651 5661 5673 5681 5687 5696 5704 5711 5719 5729 5734 5741 5746 5752 5758 5763 5766 5769 5774 5778 5782 5787 5790 5793 5794 5799 5803 5804 5805 5806 5807 5806 5804 5805 5804 5803 5802 5802
5564 5579 5585 5596 5616 5627 5639 5649 5659 5668 5677 5686 5696 5704 5711 5720 5724 5732 5739 5744 5749 5753 5758 5762 5766 5771 5775 5778 5781 5785 5788 5790 5793 5795 5795 5798 5798 5795 5794 5792 5792 5791 5791 5790
5549 5564 5571 5596 5605 5616 5625 5637 5646 5656 5667 5676 5686 5695 5703 5710 5717 5725 5731 5737 5741 5745 5750 5754 5759 5762 5765 5768 5773 5776 5780 5783 5784 5784 5784 5786 5786 5785 5783 5782 5782 5781 5780 5778
5539 5548 5564 5574 5587 5599 5609 5622 5634 5645 5655 5671 5679 5686 5694 5700 5707 5716 5724 5729 5735 5739 5743 5746 5751 5754 5757 5761 5765 5768 5771 5773 5774 5774 5775 5775 5774 5774 5773 5772 5773 5771 5770 5768
5532 5538 5550 5562 5577 5594 5601 5615 5622 5633 5647 5658 5667 5674 5685 5691 5699 5708 5715 5723 5728 5732 5736 5741 5744 5748 5752 5755 5758 5760 5762 5764 5766 5767 5767 5767 5767 5766 5765 5765 5763 5762 5761 5759
5528 5537 5546 5559 5573 5583 5592 5605 5623 5631 5640 5648 5657 5667 5678 5685 5692 5700 5709 5716 5721 5726 5730 5734 5738 5743 5747 5749 5751 5753 5755 5757 5759 5760 5760 5759 5758 5758 5757 5757 5756 5754 5751 5749
5528 5534 5545 5558 5566 5578 5592 5607 5612 5621 5631 5641 5651 5662 5672 5680 5688 5697 5705 5711 5716 5720 5726 5730 5734 5737 5740 5742 5745 5747 5749 5750 5752 5753 5753 5752 5752 5752 5752 5751 5749 5746 5744 5741
5528 5535 5545 5554 5561 5573 5580 5593 5608 5619 5628 5636 5646 5657 5666 5676 5684 5693 5699 5705 5710 5715 5720 5725 5728 5732 5735 5738 5740 5742 5743 5743 5745 5747 5748 5749 5748 5746 5744 5742 5740 5738 5736 5733
5530 5539 5545 5555 5565 5574 5584 5596 5605 5614 5624 5633 5644 5655 5661 5671 5681 5689 5695 5700 5706 5711 5715 5719 5723 5727 5730 5732 5734 5736 5737 5738 5740 5742 5744 5742 5740 5739 5737 5735 5734 5732 5729 5725
5538 5541 5547 5555 5564 5569 5579 5592 5603 5614 5623 5631 5639 5649 5656 5666 5675 5682 5689 5695 5701 5705 5710 5714 5717 5721 5724 5726 5727 5729 5731 5734 5736 5737 5736 5735 5734 5732 5730 5728 5726 5723 5721 5718
5540 5544 5550 5556 5563 5570 5578 5589 5601 5612 5620 5628 5636 5646 5653 5661 5672 5678 5684 5690 5696 5701 5705 5708 5712 5715 5717 5719 5721 5723 5726 5728 5730 5730 5729 5728 5728 5726 5724 5722 5719 5716 5713 5709
5542 5546 5551 5560 5564 5573 5583 5591 5600 5611 5621 5629 5635 5644 5653 5661 5669 5675 5681 5686 5691 5697 5701 5704 5707 5709 5711 5712 5715 5717 5719 5722 5723 5723 5722 5721 5720 5718 5717 5714 5712 5708 5704 5700
5545 5551 5556 5561 5566 5575 5584 5592 5602 5610 5618 5626 5635 5641 5648 5656 5664 5670 5676 5681 5687 5691 5695 5699 5701 5703 5704 5706 5709 5711 5714 5716 5717 5716 5717 5716 5715 5712 5709 5707 5703 5700 5697 5693
5548 5553 5558 5564 5569 5577 5584 5592 5599 5607 5618 5626 5633 5642 5649 5654 5661 5667 5672 5678 5682 5687 5690 5694 5696 5698 5699 5701 5704 5707 5708 5710 5711 5711 5710 5709 5706 5704 5702 5697 5696 5693 5690 5685
5551 5557 5563 5567 5572 5581 5587 5594 5602 5610 5618 5626 5633 5641 5646 5652 5658 5663 5670 5674 5678 5682 5686 5689 5691 5693 5695 5698 5700 5701 5703 5705 5704 5703 5702 5699 5697 5695 5692 5691 5688 5685 5682 5677
5557 5561 5566 5572 5576 5584 5589 5596 5603 5611 5619 5626 5634 5641 5646 5650 5656 5662 5667 5672 5675 5678 5681 5683 5686 5688 5691 5695 5696 5697 5698 5698 5698 5696 5694 5692 5690 5687 5686 5684 5682 5679 5674 5670
5562 5567 5573 5575 5581 5585 5592 5599 5606 5614 5622 5628 5633 5639 5643 5648 5654 5660 5665 5667 5670 5674 5677 5679 5680 5684 5688 5691 5691 5692 5693 5692 5691 5690 5688 5686 5683 5681 5679 5677 5675 5671 5666 5663
5567 5570 5575 5580 5585 5589 5594 5600 5607 5614 5625 5627 5632 5637 5642 5648 5653 5655 5659 5664 5667 5670 5672 5674 5677 5680 5684 5685 5686 5687 5687 5687 5685 5683 5680 5679 5677 5675 5672 5669 5666 5663 5660 5656
5570 5573 5578 5582 5587 5592 5597 5603 5609 5615 5620 5626 5632 5636 5641 5645 5649 5654 5657 5660 5663 5666 5668 5671 5674 5677 5680 5681 5682 5682 5682 5681 5679 5676 5675 5673 5670 5667 5665 5661 5658 5655 5653 5650
5572 5577 5581 5585 5590 5594 5597 5602 5608 5614 5621 5625 5630 5634 5639 5643 5647 5652 5654 5656 5659 5661 5664 5668 5670 5673 5675 5676 5677 5677 5676 5674 5672 5670 5667 5664 5661 5659 5656 5652 5649 5647 5646 5644
5575 5579 5583 5588 5591 5595 5600 5604 5609 5614 5619 5624 5628 5632 5638 5642 5646 5649 5652 5654 5657 5659 5662 5664 5667 5669 5670 5671 5671 5671 5669 5667 5665 5663 5660 5657 5653 5650 5646 5643 5640 5639 5639 5638
5578 5581 5585 5589 5593 5597 5601 5605 5610 5615 5619 5623 5627 5631 5634 5640 5644 5647 5650 5652 5654 5656 5658 5660 5662 5664 5665 5666 5665 5664 5662 5660 5657 5654 5652 5649 5645 5642 5639 5634 5632 5632 5632 5632
5579 5584 5587 5590 5596 5600 5603 5607 5611 5615 5618 5620 5625 5630 5635 5639 5643 5645 5648 5650 5652 5654 5655 5657 5658 5658 5659 5658 5657 5656 5653 5651 5648 5645 5643 5640 5637 5633 5630 5627 5625 5626 5626 5626